Regional Weather Roundup
Issued by NWS Wakefield, VA

Home | Current Version | Previous Version | Text Only | Print | Product List | Glossary Off
Versions: 1 2 3 4 5 6 7 8 9 10 11 12 13 14 15 16 17 18 19 20 21 22 23 24 25 26 27 28 29 30 31 32 33 34 35 36 37 38 39 40 41 42 43 44 45 46 47 48 49 50

000
ASUS41 KAKQ 041514
RWRAKQ

REGIONAL WEATHER ROUNDUP
NATIONAL WEATHER SERVICE WAKEFIELD VA
1100 AM EDT MON MAY 04 2015

Note: "fair" indicates few or no clouds below 12,000 feet with no
significant weather and/or obstructions to visibility. * = Denotes
station may not report precipitation (e.g., rain,snow,etc.),
thunder or fog.

VAZ042-051-052>054-056-041600-
NORTHERN VIRGINIA

CITY           SKY/WX    TMP DP  RH WIND       PRES   REMARKS
WASH NATIONAL  SUNNY     73  54  51 S13       30.25S
DULLES         MOSUNNY   75  51  43 S7        30.23F
FORT BELVOIR   NOT AVBL
QUANTICO       SUNNY     69  57  65 S9        30.26S
FREDERICKSBRG* SUNNY     79  53  39 S6        30.25S
STAFFORD*      SUNNY     76  47  36 SW5       30.29S
WARRENTON      SUNNY     78  56  46 S7        30.24S
CULPEPER*      NOT AVBL
MANASSAS*      SUNNY     75  52  43 S6        30.24F
LEESBURG*      SUNNY     79  55  44 S7        30.24F
WINCHESTER     SUNNY     75  43  31 S6        30.23S
FRONT ROYAL*   FAIR      73  48  40 SW8       30.22F
LURAY*         FAIR      77  54  44 SW6       30.24F
$$

VAZ048-049-060>072-079>083-041600-
CENTRAL AND SOUTH CENTRAL VIRGINIA

CITY           SKY/WX    TMP DP  RH WIND       PRES   REMARKS
RICHMOND       SUNNY     76  52  43 SW8       30.28S
CHESTERFIELD*  FAIR      75  52  43 S7        30.30S
PETERSBURG*    SUNNY     78  52  40 SW9       30.30R
HANOVER        SUNNY     76  53  44 S9        30.29S
TAPPAHANNOCK*  SUNNY     77  46  33 SW6       30.28S
QUINTON*       FAIR      74  55  50 W3        30.29R
CHARLOTTSVILLE SUNNY     76  53  44 SE7       30.25S
GORDONSVILLE*  FAIR      74  52  45 S7        30.25S
ORANGE*        SUNNY     77  52  41 S9        30.26F
LOUISA*        SUNNY     75  54  46 S7        30.25F
BUMPASS*       FAIR      74  53  48 S6        30.27S
FARMVILLE*     SUNNY     75  55  49 CALM      30.27S
CREWE*         FAIR      75  52  44 SW7       30.29R
FORT PICKETT*  FAIR      74  55  51 SW7G18    30.30S
CHASE CITY*    FAIR      75  59  57 SW5       30.30S
CLARKSVILLE*   FAIR      72  57  60 S3        30.29S
SOUTH HILL*    SUNNY     72  57  58 CALM      30.36S
LAWRENCEVILLE* FAIR      74  57  56 SW7       30.30S
EMPORIA*       SUNNY     73  54  49 S6        30.32S
$$

VAZ088>098-041600-
SOUTHEAST VIRGINIA

CITY           SKY/WX    TMP DP  RH WIND       PRES   REMARKS
NORFOLK        SUNNY     76  49  38 SW12      30.31S
VIRGINIA BEACH MOSUNNY   81  53  37 W13       30.31R
NORFOLK NAVAL  SUNNY     79  51  37 VRB5      30.32S
WEST POINT*    SUNNY     78  50  37 SW5       30.31S
SALUDA*        FAIR      75  54  46 S8        30.28F
NEWPORT NEWS   SUNNY     78  53  41 SW10      30.31S
LANGLEY AFB    NOT AVBL
FORT EUSTIS    NOT AVBL
WILLIAMSBURG*  SUNNY     79  59  50 SE3       30.31S
HR EXEC AP*    FAIR      77  54  44 W10       30.33S
FRANKLIN*      SUNNY     74  52  45 SW6       30.32S
WAKEFIELD      SUNNY     75  56  51 VRB7      30.30F
$$

VAZ020-022-025-037-045-041600-
WEST CENTRAL AND SOUTHWEST VIRGINIA

CITY           SKY/WX    TMP DP  RH WIND       PRES   REMARKS
STAUNTON*      SUNNY     74  50  42 SW7       30.27F
WAYNESBORO*    FAIR      73  50  43 SW8       30.27S
HOT SPRINGS VA SUNNY     65  43  44 NW8       30.34R
LYNCHBURG      SUNNY     71  53  52 VRB5      30.29S
DANVILLE       SUNNY     73  56  54 VRB3      30.30R
SOUTH BOSTON*  FAIR      73  56  54 SW5       30.29S
MARTINSVILLE   MOSUNNY   73  53  50 SW3       30.32S
ROANOKE        SUNNY     71  52  50 S6        30.30S
BLACKSBURG     SUNNY     69  49  48 W5        30.35R
DUBLIN*        SUNNY     72  51  47 CALM      30.33S
MARION*        SUNNY     71  48  45 SW10      30.36R
HILLSVILLE*    SUNNY     68  48  48 W5        30.34S
RICHLANDS*     FAIR      68  42  38 W6        30.35R
WISE*          SUNNY     70  43  37 SW14      30.36R
ABINGDON*      SUNNY     72  49  44 W8        30.34R
$$

MDZ021>025-VAZ099-100-041600-
SOUTHERN MARYLAND AND THE DELMARVA PENINSULA

CITY           SKY/WX    TMP DP  RH WIND       PRES   REMARKS
PATUXENT RIVER SUNNY     76  51  41 SW9       30.26S
BAY BRIDGE APT   N/A    N/A N/A N/A SE8       30.25S
LEONARDTOWN    SUNNY     75  46  35 SW8       30.28S
DOVER          NOT AVBL
GEORGETOWN     SUNNY     78  50  37 S9        30.27R
EASTON         SUNNY     77  52  41 SW8       30.29S
CAMBRIDGE      SUNNY     77  48  36 S7        30.26S
SALISBURY      SUNNY     77  51  40 SW9       30.27S
OCEAN CITY     SUNNY     76  51  41 SW8       30.28R
WALLOPS ISLAND SUNNY     74  52  46 W9        30.29R
ACCOMACK*      SUNNY     73  54  49 W7        30.30S
$$

NCZ012>017-030>032-041600-
NORTH CENTRAL AND EASTERN NORTH CAROLINA

CITY           SKY/WX    TMP DP  RH WIND       PRES   REMARKS
ROANOKE RAPIDS FAIR      73  54  49 SW10      30.32S
RALEIGH        MOSUNNY   73  57  57 SW6       30.32S
ELIZABETH CITY SUNNY     76  53  44 SW8       30.33S
AHOSKIE*       SUNNY     76  51  41 SW3       30.32S
EDENTON*       SUNNY     74  56  53 W6        30.34R
CURRITUCK*     SUNNY     76  47  36 W10       30.33S
KILL DEVIL HLS SUNNY     71  55  56 W6        30.33S
MANTEO         SUNNY     73  53  49 NW5       30.34S
CAPE HATTERAS  SUNNY     69  51  52 W7        30.35R
TARBORO*       FAIR      77  49  38 SW9       30.34R
GOLDSBORO      NOT AVBL
WASHINGTON     MOSUNNY   74  53  47 SW6       30.34S
GREENVILLE     MOSUNNY   77  50  38 SW7       30.34S
NEW BERN       SUNNY     77  50  38 VRB5      30.36R
WILMINGTON     SUNNY     76  55  48 VRB3      30.35R
$$

VAZ048-041600-
ELSEWHERE

CITY           SKY/WX    TMP DP  RH WIND       PRES   REMARKS
HARRISBURG PA  MOSUNNY   76  49  38 SE6       30.20F
BALTIMORE      MOSUNNY   77  49  37 SW9       30.23S
ANNAPOLIS      SUNNY     66  55  67 SE13      30.24S
ANDREWS AFB    NOT AVBL
PHILADELPHIA   MOSUNNY   76  47  35 SW7       30.24R
HENDERSON NC   SUNNY     73  54  52 S8        30.31S
GREENSBORO     MOSUNNY   73  54  51 SW6       30.30S
ROCKY MOUNT    SUNNY     76  52  43 S8        30.33S
$$

VAZ100-041600-
MARINE

STATION/POSITION TIME  TEMP    WIND        PRES    WAVE   SWELL
                       AIR SEA DIR/SP/G            HT/PER HT/PER
                 (UTC) (F)     (DEG/KT/KT) (MB)    (FT/S) (FT/S)
BRANDYWINE LGT   1400   66 54  240/  8/  8 1024.5R
CAPE MAY NJ      1400   66 60  210/  5/  6 1024.2R
LEWES DE         1400   74 55  270/ 11/ 13 1024.3R
15NM E FENWICK I 1450   55 52              1025.1R   3/12
OCEAN-CITY-INLET 1412   69 53  250/  5/  6 1024.8R
WACHAPREAGUE VA  1400   72 61  270/  6/ 11 1025.6R
THOMAS POINT MD  1500   65 60  160/ 11/ 12 1024.8S
GOOSES REEF MD   1500   66 60                N/A     1
COVE POINT MD    1400   72     250/  9/ 12 1025.2R
SOLOMONS ISLAND  1400      61                N/A
BISHOPS HEAD MD  1400   64 64  200/  2/  4 1025.0R
PINEY POINT MD   1400          110/  4/  4   N/A
CAMBRIDGE MD     1400   74 62  200/  4/ 10 1024.4S
LEWISETTA VA     1400   70 63              1024.8R
RAPPAHANNOCK LGT 1400          180/  8/  8 1026.4R
YORK RVR RNG VA  1400   69     260/  6/  7 1025.5R
YORKTOWN VA      1400   70 60  260/  8/ 12 1025.6R
JAMESTOWN VA     1500   69 66  140/  4/  6 1025.2S
DOMINION TERM VA 1400   66     240/  7/  8 1026.4R
KIPTOPEKE VA     1400      64  200/  3/  5   N/A
CHES BAY BRIDGE  1412   65 58  260/  9/ 10 1025.9R
CAPE HENRY VA    1400   72     240/  9/ 12 1024.9R
CHESAPEAKE LGHT  1400   65     240/  6/  7 1027.1R
WILLOUBY STN VA  1400   65     230/  7/  7 1027.0R
S CRANEY ISL VA  1400          260/  4/  6 1026.3R
CAPE HENRY BUOY  1428      58                N/A     2/11   2/11
1ST LANDING BUOY 1500      59                N/A     1/ 5
CAPE CHARLES BUO 1426      56                N/A     2/11   2/11
OFFSHORE WE BUOY 1411      53                N/A     3/ 9   3/ 9
64NM E OF VA BCH 1450   59 61  230/  8/ 10 1026.6R   3/11   3/11
DUCK PIER NC     1400   68 53  260/  8/  9 1025.9R
44056 DUCK FRF   1411      58                N/A     3/10   2/11
OREGON INLET NC  1400   66 63  220/  6/  6 1027.1R
HATTERAS NC      1412   68 63  250/  5/  6 1027.2R
DIAMOND SHLS NC  1450   67 77  300/  4/  6 1028.0R   4/10   3/10
CAPE LOOKOUT NC  1500   67      90/  4/  4 1027.7R
$$



USA.gov is the U.S. government's official web portal to all federal, state and local government web resources and services.